[[{"header":{"parameterUnit":"m.s-1","parameterCategory":1,"la1":30.2991,"la2":30.254,"lo1":-89.0895,"lo2":-89.0444,"dy":0.0017,"dx":0.0017,"nx":28,"ny":28,"refTime":"2025-07-12T09:00:00:Z","depth":0,"parameterNumber":2,"parameterNumberName":"U-component_of_WINDS"},"data":[0,0,0,0,0,0,0,0,0,0,0,0,0,0,0,0,0,0,0,0,0,0,0,0,0,0,0,0,0,0,0,0,0,0,0,0,0,0,0,0,0,0,0,0,0,0,0,0,0,0,0,0,0,0,0,0,0,0,2.6085,2.6085,0,2.6147,2.6148,2.6148,2.6111,2.6109,2.6108,2.6106,2.617,2.6173,2.6176,0,0,0,0,0,0,0,0,0,0,0,0,0,2.5931,2.5934,2.6085,2.6085,2.6086,2.6147,2.6148,2.6149,2.6111,2.6109,2.6107,2.6105,2.6169,2.6173,2.6177,0,0,0,0,0,0,0,0,0,0,0,0,0,2.5996,2.5935,2.6084,2.6075,2.6075,2.6147,2.6148,2.6149,2.6112,2.6109,2.6107,2.6104,2.6167,2.6172,2.6177,2.6262,0,0,2.6193,2.6195,0,0,0,0,0,0,0,0,2.5993,2.6002,2.6076,2.6076,2.6076,2.6119,2.6117,2.6187,2.6113,2.6098,2.6106,2.6103,2.6155,2.6161,2.6178,2.6265,2.6268,2.6193,2.6196,2.6198,2.62,0,0,0,0,0,0,0,2.5988,2.5999,2.6109,2.6077,2.6077,2.6067,2.6073,2.613,2.6141,2.6099,2.6096,2.6104,2.6154,2.6174,2.618,2.6269,2.6193,2.6197,2.62,2.6202,2.6424,2.6427,0,0,0,0,0,0,2.5984,2.5995,2.6107,2.6111,2.6027,2.6072,2.6079,2.6107,2.614,2.6142,2.6106,2.6102,2.6166,2.6174,2.6182,2.628,2.6198,2.6203,2.6206,2.6421,2.6425,2.6428,0,0,0,0,0,0,2.5981,2.5995,2.6105,2.6053,2.6066,2.6077,2.611,2.611,2.6129,2.6146,2.6147,2.6124,2.6164,2.6175,2.6241,2.6282,2.6205,2.621,2.6418,2.6422,2.6426,2.6479,0,0,0,0,0,0,2.5977,2.5994,2.6027,2.6054,2.6069,2.6164,2.6112,2.6113,2.6138,2.6133,2.6163,2.6165,2.6163,2.6234,2.6246,2.6287,2.6214,2.6414,2.642,2.6425,2.6474,2.6485,2.6494,0,0,0,0,0,2.5972,2.604,2.6029,2.6042,2.611,2.6167,2.6175,2.6172,2.6142,2.6174,2.6184,2.6164,2.6276,2.6241,2.6255,2.6298,2.6412,2.6418,2.6424,2.6469,2.6483,2.6494,0,0,0,0,0,0,2.6018,2.6044,2.6031,2.6111,2.6137,2.616,2.6201,2.6187,2.6222,2.6216,2.621,2.6217,2.6286,2.6299,2.626,2.638,2.6339,2.6348,2.6368,2.6381,2.6391,2.6385,2.6218,0,0,0,0,0,2.6038,2.6082,2.6102,2.617,2.6183,2.619,2.6215,2.6209,2.6236,2.6247,2.6262,2.6289,2.6329,2.6357,2.6395,2.6476,2.648,2.6513,2.6523,2.6531,2.6538,2.6579,2.6592,2.6449,2.6449,2.6449,0,0,2.6079,2.6098,2.6126,2.6179,2.6199,2.6243,2.62,2.625,2.6282,2.6255,2.6318,2.633,2.6359,2.6432,2.6465,2.6445,2.6579,2.6539,2.6546,2.6549,2.6587,2.66,2.6612,2.6453,2.6452,2.6452,0,0,2.6175,2.6195,2.6252,2.6272,2.6302,2.6306,2.632,2.6346,2.6352,2.6415,2.6395,2.6433,2.6505,2.6525,2.6545,2.6646,2.6628,2.6659,2.6711,2.6751,2.6762,2.6772,2.6805,2.6817,2.6667,2.6668,2.6668,0,2.6222,2.6288,2.6284,2.6334,2.6357,2.6334,2.639,2.641,2.6451,2.6467,2.6444,2.6531,2.6549,2.6625,2.665,2.6668,2.6681,2.6655,2.6761,2.6771,2.678,2.6811,2.6824,2.6671,2.667,2.667,2.667,0,2.6342,2.6389,2.6431,2.647,2.6498,2.6552,2.6554,2.6583,2.6575,2.658,2.6643,2.6665,2.6705,2.6724,2.6717,2.6798,2.6784,2.6762,2.672,2.6797,2.6826,2.6839,2.6676,2.6674,2.6673,2.6673,0,0,2.647,2.6504,2.6519,2.6535,2.6566,2.6601,2.6653,2.6692,2.6715,2.6745,2.6786,2.6846,2.6824,2.6846,2.6842,2.6877,2.6952,2.6849,2.685,2.6865,2.7038,2.7053,2.7067,2.6941,2.6943,2.6945,2.7035,0,2.6565,2.6655,2.6651,2.6734,2.6775,2.6753,2.6797,2.682,2.6827,2.6862,2.6869,2.691,2.688,2.6893,2.6927,2.6935,2.6986,2.6929,2.6977,2.6978,2.6967,2.7083,2.7099,2.7183,2.7046,2.7048,2.705,0,2.6689,2.672,2.6807,2.6828,2.6846,2.6886,2.692,2.6955,2.6979,2.6981,2.7005,2.6994,2.7045,2.7003,2.7071,2.7032,2.7052,2.7059,2.7062,2.7064,2.7017,2.7085,2.721,2.7222,2.7068,2.7067,2.7066,0,2.6768,2.6833,2.6892,2.6907,2.6935,2.6963,2.6976,2.6998,2.7021,2.7051,2.7065,2.7101,2.712,2.7148,2.7146,2.7117,2.7214,2.7173,2.7215,2.7215,2.7234,2.7233,2.7361,2.7252,2.7252,2.7252,2.7251,0,2.6874,2.6927,2.6928,2.6964,2.7022,2.7018,2.7075,2.7085,2.7104,2.7141,2.7125,2.716,2.7157,2.7191,2.7191,2.7245,2.7255,2.7256,2.7255,2.7256,2.7255,2.7267,2.726,2.7255,2.7254,2.7254,2.7253,0,2.6972,2.6976,2.7038,2.7058,2.7065,2.7106,2.7123,2.7157,2.7161,2.7208,2.7218,2.7226,2.7265,2.7267,2.7313,2.7312,2.7378,2.7371,2.7369,2.7367,2.7407,2.7402,2.7545,2.7562,2.7445,2.7446,2.7447,0,2.7038,2.7078,2.7102,2.7125,2.7139,2.7177,2.72,2.7196,2.722,2.725,2.7279,2.7317,2.7347,2.7411,2.742,2.7455,2.7447,2.7495,2.7452,2.7451,2.7444,2.744,2.7443,2.7502,2.7504,2.7505,2.7506,0,2.7153,2.7152,2.7186,2.7219,2.7246,2.7273,2.7297,2.7317,2.7316,2.7344,2.7383,2.7406,2.7452,2.7489,2.7522,2.7534,2.7519,2.7519,2.753,2.753,2.7526,2.7525,2.7388,2.7516,2.7515,2.7514,2.7513,2.7513,2.7235,2.7268,2.7289,2.7326,2.7344,2.7367,2.7398,2.7406,2.7439,2.7476,2.7472,2.7515,2.7536,2.7579,2.7593,2.7627,2.761,2.7627,2.763,2.7634,2.7636,2.7523,2.7633,2.7633,2.7633,2.7632,2.7632,0,2.7346,2.7359,2.7393,2.7426,2.7455,2.7438,2.7464,2.7488,2.7527,2.7548,2.7577,2.7621,2.7656,2.7668,2.7701,2.7725,2.7719,2.7734,2.7731,2.7733,2.7651,2.7637,2.7738,2.7738,2.7738,2.7738,2.7738,2.7738,2.7408,2.7462,2.7463,2.7525,2.7537,2.7578,2.7594,2.7614,2.763,2.768,2.7709,2.7716,2.7732,2.7767,2.7797,2.78,2.7811,2.7829,2.7828,2.775,2.774,2.7729,2.7715,2.7832,2.7832,2.7907,2.7908,2.7908]},{"header":{"parameterUnit":"m.s-1","parameterCategory":1,"la1":30.2991,"la2":30.254,"lo1":-89.0895,"lo2":-89.0444,"dy":0.0017,"dx":0.0017,"nx":28,"ny":28,"refTime":"2025-07-12T09:00:00:Z","depth":0,"parameterNumber":3,"parameterNumberName":"V-component_of_WINDS"},"data":[0,0,0,0,0,0,0,0,0,0,0,0,0,0,0,0,0,0,0,0,0,0,0,0,0,0,0,0,0,0,0,0,0,0,0,0,0,0,0,0,0,0,0,0,0,0,0,0,0,0,0,0,0,0,0,0,0,0,1.8853,1.8855,0,1.8953,1.8955,1.8956,1.8958,1.8957,1.8955,1.8954,1.9055,1.9059,1.9062,0,0,0,0,0,0,0,0,0,0,0,0,0,1.8661,1.8665,1.8853,1.8855,1.8856,1.8953,1.8955,1.8956,1.8958,1.8957,1.8955,1.8954,1.9054,1.9058,1.9063,0,0,0,0,0,0,0,0,0,0,0,0,0,1.8751,1.8666,1.8853,1.8869,1.8871,1.8953,1.8955,1.8956,1.8958,1.8957,1.8955,1.8953,1.9052,1.9058,1.9063,1.9136,0,0,1.9081,1.9083,0,0,0,0,0,0,0,0,1.8746,1.8758,1.8865,1.8868,1.8871,1.8941,1.8924,1.9016,1.8959,1.8925,1.8954,1.8952,1.9018,1.9027,1.905,1.9141,1.9145,1.9081,1.9085,1.9087,1.9089,0,0,0,0,0,0,0,1.874,1.8754,1.8893,1.8867,1.887,1.887,1.888,1.8941,1.8981,1.8928,1.8928,1.894,1.902,1.9044,1.9052,1.9146,1.9081,1.9086,1.909,1.9092,1.9299,1.9301,0,0,0,0,0,0,1.8731,1.8749,1.889,1.8896,1.8803,1.8875,1.8887,1.892,1.898,1.8988,1.8942,1.894,1.9035,1.9045,1.9056,1.9143,1.9087,1.9093,1.9096,1.9297,1.93,1.9302,0,0,0,0,0,0,1.8727,1.8743,1.8886,1.8823,1.8841,1.888,1.8918,1.8923,1.8948,1.8991,1.8998,1.896,1.9034,1.9047,1.9115,1.9146,1.9095,1.9101,1.9295,1.9298,1.9301,1.9319,0,0,0,0,0,0,1.8721,1.8742,1.8771,1.8823,1.8844,1.8945,1.892,1.8927,1.8958,1.8957,1.9009,1.9016,1.9034,1.9107,1.9121,1.9153,1.9105,1.9292,1.9296,1.93,1.9316,1.9322,1.9328,0,0,0,0,0,1.8714,1.8772,1.8772,1.8789,1.8881,1.8947,1.8959,1.8978,1.8961,1.8989,1.9016,1.9015,1.9141,1.9114,1.913,1.9164,1.929,1.9295,1.93,1.9313,1.9321,1.9328,0,0,0,0,0,0,1.8722,1.8779,1.878,1.8857,1.8897,1.8947,1.8984,1.8986,1.9032,1.9028,1.905,1.9062,1.9129,1.9154,1.9122,1.9236,1.9213,1.9221,1.9218,1.9226,1.9232,1.9224,1.911,0,0,0,0,0,1.8733,1.8783,1.8829,1.8892,1.8912,1.8945,1.8974,1.8985,1.9028,1.9045,1.9077,1.9117,1.9166,1.9197,1.9244,1.9319,1.933,1.9351,1.9357,1.9361,1.9368,1.9407,1.9417,1.9317,1.9317,1.9317,0,0,1.8756,1.8793,1.8823,1.8895,1.8927,1.8977,1.8959,1.9013,1.9049,1.9053,1.9118,1.9143,1.919,1.9261,1.9294,1.9283,1.9398,1.9367,1.9371,1.9375,1.9413,1.9422,1.9431,1.932,1.932,1.9319,0,0,1.8822,1.8856,1.8911,1.8944,1.8993,1.9014,1.9027,1.9076,1.9093,1.916,1.9162,1.9206,1.9289,1.9322,1.9349,1.9425,1.9425,1.944,1.9471,1.9509,1.9517,1.9524,1.955,1.9559,1.9446,1.9446,1.9446,0,1.8844,1.8919,1.8939,1.8992,1.9023,1.9028,1.9083,1.9114,1.9176,1.9196,1.9184,1.9288,1.9319,1.9397,1.9415,1.9438,1.9452,1.9434,1.9515,1.9522,1.9529,1.9553,1.9563,1.9448,1.9448,1.9448,1.9447,0,1.8943,1.8995,1.9033,1.9093,1.9128,1.9182,1.9209,1.9242,1.9249,1.9271,1.9337,1.9375,1.9429,1.9448,1.9457,1.9527,1.9519,1.951,1.9487,1.9539,1.9563,1.9573,1.945,1.9449,1.9449,1.9449,0,0,1.9018,1.9086,1.91,1.9126,1.918,1.922,1.9273,1.9326,1.9353,1.9396,1.944,1.9509,1.9501,1.9532,1.9544,1.9578,1.9633,1.9565,1.9566,1.9575,1.9711,1.9716,1.9727,1.9633,1.9635,1.9637,1.9706,0,1.9089,1.9185,1.9203,1.9285,1.9333,1.9337,1.9383,1.9421,1.9442,1.9484,1.9507,1.9556,1.9542,1.956,1.9594,1.9619,1.9661,1.9615,1.9673,1.9675,1.9661,1.974,1.9746,1.981,1.9716,1.9718,1.9719,0,1.9185,1.9229,1.9316,1.9362,1.9382,1.9424,1.9473,1.9514,1.9555,1.9568,1.9602,1.9609,1.9663,1.9638,1.9711,1.9679,1.9704,1.972,1.9723,1.9729,1.97,1.9746,1.9831,1.984,1.9734,1.9732,1.9731,0,1.9229,1.931,1.9373,1.9395,1.945,1.9479,1.9503,1.9543,1.9573,1.9615,1.9634,1.9683,1.9709,1.9745,1.9764,1.9744,1.9836,1.9813,1.9847,1.9846,1.9866,1.9864,1.9955,1.9883,1.9883,1.9883,1.9883,0,1.9306,1.9359,1.9393,1.9431,1.949,1.951,1.9567,1.959,1.9625,1.9667,1.9674,1.9713,1.9737,1.9778,1.9794,1.9851,1.9863,1.9874,1.9877,1.9873,1.9872,1.9889,1.9885,1.9885,1.9885,1.9884,1.9884,0,1.9366,1.9391,1.9458,1.9505,1.9517,1.9558,1.9597,1.9634,1.9654,1.9707,1.972,1.9752,1.9802,1.9825,1.9886,1.9896,1.9961,1.9962,1.9947,1.9948,1.9981,1.9977,2.0085,2.01,2.002,2.002,2.0021,0,1.9413,1.9453,1.9504,1.9532,1.9557,1.9603,1.9634,1.9654,1.9685,1.9734,1.9764,1.9814,1.9855,1.9933,1.9961,2.0008,2.0009,2.0044,2.0016,2.0009,2.0008,2.0005,2.0008,2.0048,2.0049,2.005,2.005,0,1.9493,1.9503,1.9547,1.9595,1.9631,1.9669,1.9707,1.973,1.9756,1.979,1.9841,1.9873,1.9935,1.9983,2.0031,2.0055,2.0056,2.0059,2.0069,2.0065,2.0054,2.0059,1.996,2.0056,2.0056,2.0055,2.0055,2.0055,1.9547,1.9583,1.9623,1.9671,1.9702,1.9736,1.9772,1.9797,1.984,1.9892,1.9901,1.9954,1.9993,2.0057,2.0082,2.0123,2.0115,2.013,2.0134,2.0137,2.0138,2.0048,2.0132,2.0132,2.0132,2.0132,2.0132,0,1.9627,1.9653,1.9697,1.9749,1.9786,1.9785,1.9826,1.9857,1.9904,1.994,1.998,2.0037,2.0084,2.0115,2.0162,2.0188,2.019,2.02,2.0198,2.0203,2.0144,2.013,2.0198,2.0198,2.0198,2.0198,2.0198,2.0198,1.9673,1.9732,1.9747,1.9821,1.9846,1.9899,1.9922,1.9953,1.9982,2.0045,2.0084,2.0104,2.0138,2.0187,2.0229,2.0237,2.0253,2.0263,2.027,2.0214,2.0207,2.0201,2.0187,2.0267,2.0267,2.0326,2.0326,2.0327]}]]